Lapse_Rate
-0.2 -0.4 0.3 3.0 6.4 6.5 6.5 6.5 6.5 6.5 6.5 5.2 4.3 4.9 6.4 6.2 6.5 6.5 4.3 5.1 5.0 4.5 6.5 7.7 7.7 7.7 7.8 8.1 6.8 5.3 4.1 3.9 3.9 3.7 3.8 3.7 3.9 3.9 4.0 4.3 4.4 4.8 4.5 4.2 3.9 3.5 3.1 2.6 2.2
-0.6 1.1 2.1 3.6 6.5 6.5 6.5 6.5 6.5 6.5 5.9 4.8 5.1 6.0 6.3 6.5 5.1 5.3 5.6 5.5 4.8 4.7 6.3 7.5 7.6 7.6 8.1 8.4 7.6 6.3 4.5 4.1 4.1 4.0 4.1 3.9 4.1 4.0 4.0 4.1 4.2 4.3 4.2 4.2 4.3 3.5 3.0 2.7 2.6
2.0 4.6 3.8 6.5 6.5 6.5 6.5 6.5 6.5 5.7 5.5 5.2 5.8 5.4 6.5 6.8 5.3 6.5 5.0 5.4 5.1 4.5 5.8 7.8 7.9 7.8 8.6 9.0 8.3 5.7 4.3 4.3 4.3 4.4 4.3 4.2 4.3 4.2 4.0 4.0 4.2 4.2 4.2 4.4 3.8 3.1 2.9 2.8 2.7
3.2 2.9 3.3 6.5 6.5 6.5 6.5 6.5 6.3 6.3 5.6 4.4 5.2 6.5 6.9 6.9 6.5 4.2 4.7 4.8 4.2 5.2 6.9 8.0 7.7 8.3 8.8 9.1 7.9 5.1 4.7 4.4 4.5 4.4 4.5 4.4 4.3 4.3 4.0 4.0 4.1 4.2 4.3 4.2 3.4 3.1 3.0 3.0 2.9
1.5 2.0 6.5 6.5 6.5 6.5 6.5 4.9 6.1 6.5 5.9 5.6 5.4 6.3 6.4 4.8 3.0 3.1 4.7 5.3 4.6 6.1 7.3 7.5 8.0 8.5 8.2 8.5 8.4 5.3 4.9 4.8 4.8 4.6 4.6 4.6 4.4 4.4 4.2 4.2 4.2 4.2 4.2 3.7 3.4 3.1 2.9 3.1 3.1
3.5 3.3 6.5 6.5 6.5 6.5 6.4 4.2 5.0 6.0 6.1 6.3 6.3 6.2 6.3 5.2 3.2 4.6 4.9 5.0 5.4 6.5 7.0 7.7 8.2 8.6 8.3 8.2 7.3 5.1 5.1 5.1 4.9 4.8 4.8 5.0 4.7 4.6 4.7 4.5 4.3 4.1 4.1 3.8 3.6 3.0 3.1 3.2 3.3
5.5 6.5 6.5 6.5 6.5 6.5 6.5 4.2 6.0 6.3 6.0 6.2 5.7 6.5 6.7 7.2 5.5 4.6 4.4 4.6 5.3 7.0 7.1 7.7 8.1 8.7 8.2 8.3 6.0 5.3 5.2 5.2 5.1 5.1 5.0 4.9 4.7 5.0 5.1 4.8 4.7 4.3 4.3 4.2 3.8 3.2 3.3 3.5 3.6
2.7 6.1 6.5 6.5 6.5 6.5 6.0 6.4 5.6 5.5 6.2 6.1 4.5 6.4 6.2 7.1 5.0 4.4 4.1 4.1 4.4 5.0 6.3 7.1 7.3 7.6 7.5 6.8 5.7 5.3 5.3 5.3 5.4 5.3 5.4 5.0 5.0 5.2 5.3 5.0 4.9 4.8 4.4 4.3 4.0 3.5 3.5 3.8 4.3
4.1 6.5 6.5 6.5 6.5 6.5 5.3 6.4 6.5 6.6 5.5 5.0 4.7 5.4 4.9 5.1 4.8 4.0 3.8 4.3 4.9 5.9 5.0 5.4 5.7 6.1 6.5 6.1 5.9 5.5 5.4 5.6 5.9 5.9 5.9 5.2 4.5 4.7 5.4 4.6 5.3 5.1 4.7 4.7 4.4 4.1 4.1 4.5 4.3
5.0 6.5 6.5 6.5 6.4 6.5 6.1 5.8 5.9 5.8 6.0 6.4 6.2 3.3 4.4 4.1 4.1 3.8 4.4 4.7 5.3 5.5 4.1 4.3 4.7 4.9 5.4 5.6 4.9 4.7 4.8 5.4 5.4 5.3 5.4 4.6 4.1 4.6 4.8 5.4 6.0 5.7 5.2 5.2 5.4 5.1 4.8 4.8 4.5
5.5 6.5 6.5 6.2 5.4 5.0 5.3 5.2 5.2 5.4 6.5 6.1 6.8 4.8 4.6 4.1 4.1 4.1 4.6 4.0 3.5 4.0 4.5 3.2 3.2 4.2 4.7 4.6 4.0 4.2 4.5 4.7 4.9 4.8 4.6 4.4 4.3 4.6 5.4 4.8 5.8 5.4 5.4 4.8 5.4 5.2 4.7 4.8 4.1
6.5 5.5 5.3 5.1 4.7 5.0 6.1 5.3 5.8 5.1 6.0 5.0 5.8 5.9 4.9 3.9 3.8 3.9 3.8 3.8 4.1 4.2 4.0 3.7 2.9 2.3 3.6 4.4 3.7 3.8 3.3 3.7 3.6 4.7 4.4 4.1 3.8 3.7 4.1 4.1 4.5 4.7 4.5 4.6 4.5 4.5 4.6 4.7 5.0
6.5 6.3 5.3 3.8 4.0 4.3 5.0 5.7 5.9 5.6 4.7 4.7 5.9 6.2 5.5 4.5 3.2 3.8 3.2 3.6 4.6 5.4 6.0 5.2 3.8 2.3 2.7 3.1 3.4 3.3 3.4 4.2 4.0 4.4 5.0 5.0 4.2 4.0 3.7 3.9 4.0 4.1 4.2 3.9 3.6 3.8 4.1 4.8 5.3
5.6 6.0 5.7 5.1 5.1 5.8 6.2 6.0 5.1 6.1 3.7 4.4 5.6 5.1 4.8 4.8 3.5 3.3 4.1 4.7 5.8 6.5 5.7 4.8 4.2 4.4 4.7 3.7 4.1 4.4 4.4 4.8 5.1 5.0 5.3 5.4 5.3 4.4 4.2 3.8 4.1 4.0 4.2 4.5 4.2 4.2 4.3 4.5 5.5
5.5 6.5 6.4 6.2 5.4 6.5 4.5 6.5 6.5 4.8 4.6 4.9 4.3 4.9 4.3 4.0 4.4 3.5 5.2 6.3 6.7 6.2 5.6 5.2 4.1 4.4 4.4 4.8 4.8 5.6 5.5 5.3 4.9 4.7 5.4 5.5 5.6 4.9 4.6 3.9 3.5 4.9 5.5 5.1 4.3 4.0 4.5 4.1 4.9
6.5 6.5 6.5 6.5 6.1 5.7 5.6 6.5 6.3 4.7 3.0 4.6 6.4 4.4 3.2 3.2 2.7 3.5 3.9 5.4 5.1 5.8 5.1 4.9 6.2 4.1 4.3 4.8 5.4 5.5 5.8 5.3 5.0 5.4 5.3 5.6 5.5 5.3 4.6 3.8 3.2 4.7 4.4 4.3 3.3 2.8 3.1 3.1 3.4
6.5 6.5 6.5 6.5 6.1 6.5 6.5 6.5 6.2 5.9 5.5 6.6 5.9 6.0 5.2 4.2 4.1 4.0 3.8 3.9 4.2 5.0 4.9 4.3 4.4 4.5 4.9 4.8 5.0 5.2 5.7 4.7 5.4 5.9 5.7 5.9 5.7 5.5 5.2 4.4 3.6 4.7 3.9 3.4 3.2 2.7 2.7 3.2 3.3
6.5 6.5 6.5 6.5 6.5 6.5 6.5 6.5 6.5 6.4 6.0 6.5 5.8 5.5 5.4 5.2 5.8 4.8 5.8 5.0 5.0 5.3 4.3 4.2 4.4 5.0 5.2 4.9 4.5 4.3 4.2 4.8 5.9 6.0 6.2 7.5 6.9 6.5 6.1 4.6 4.5 4.6 3.9 2.9 2.7 3.2 2.1 3.1 3.4
6.5 6.5 6.5 6.5 6.5 6.5 6.5 6.5 6.5 6.2 5.9 6.2 5.5 5.4 6.6 6.3 5.9 4.9 5.3 4.4 4.9 5.5 6.2 6.3 6.1 6.1 5.9 5.1 4.3 4.3 4.8 4.3 5.1 5.8 6.5 6.3 6.5 7.3 6.4 6.6 6.1 6.0 4.9 5.1 3.1 2.8 3.3 2.7 2.7
6.5 6.5 6.5 6.5 6.5 6.5 6.5 6.5 6.5 6.4 6.1 4.7 4.9 5.1 5.1 4.9 4.8 5.2 5.5 5.5 5.5 5.0 5.5 6.3 7.0 6.7 6.6 5.1 4.2 4.5 3.7 4.2 5.5 5.8 5.9 6.3 6.3 6.5 6.2 6.3 6.4 6.7 4.8 3.5 2.6 2.6 2.4 2.7 1.9
6.5 6.5 6.5 6.5 6.5 6.5 6.5 6.5 6.5 6.6 6.2 6.2 5.8 5.0 4.5 4.2 4.9 5.5 5.3 4.3 4.1 4.1 3.5 4.2 4.2 5.1 5.1 4.8 4.0 3.8 3.9 4.2 4.5 4.9 4.7 4.7 5.5 5.4 5.5 5.1 3.6 2.4 2.3 2.9 2.0 2.2 2.4 3.1 2.4
6.5 6.5 6.5 6.5 6.5 6.5 6.5 6.5 6.5 6.5 6.5 6.5 6.2 5.1 4.3 4.8 5.1 5.3 5.2 3.6 2.7 2.9 2.7 3.1 4.1 4.7 5.5 4.1 4.0 4.1 3.5 3.6 2.7 2.8 2.7 3.2 4.8 4.9 5.3 5.3 4.7 3.2 2.5 2.9 2.7 3.0 2.6 2.8 3.3
6.5 6.5 6.5 6.5 6.5 6.5 6.5 6.5 6.5 6.5 6.5 6.5 6.3 6.2 6.3 6.0 5.3 5.1 4.5 4.1 4.7 4.7 3.8 3.6 4.1 4.0 4.0 3.7 3.5 2.7 2.9 2.4 2.5 2.5 2.9 2.8 3.2 4.6 4.4 3.8 3.1 2.6 2.2 2.6 2.6 2.8 2.6 2.9 3.1
6.5 6.5 6.5 6.5 6.5 6.5 6.5 6.5 6.5 6.5 6.5 6.5 6.5 6.3 5.7 6.2 6.1 5.7 6.4 6.1 5.0 3.3 2.8 2.5 3.0 3.8 3.6 3.4 3.5 3.2 2.9 3.1 3.0 3.3 3.4 3.6 3.3 2.5 2.3 2.7 1.9 1.6 1.3 1.3 1.1 1.8 2.9 3.4 3.4
6.5 6.5 6.5 6.5 6.5 6.5 6.5 6.5 6.5 6.5 6.5 6.3 6.2 6.1 5.7 4.7 4.4 4.9 4.9 4.2 4.5 4.0 3.3 3.2 3.7 3.9 4.0 3.8 3.8 3.8 3.6 3.4 3.4 3.6 3.6 4.3 4.3 3.5 2.9 3.1 3.0 3.1 3.2 2.9 2.2 1.9 1.7 2.5 4.0
6.5 6.5 6.5 6.5 6.5 6.5 6.5 6.5 6.5 6.5 6.1 5.8 5.9 6.1 5.1 4.5 4.0 3.9 4.5 4.0 3.6 4.0 3.7 3.0 3.5 4.0 4.3 4.2 4.0 3.8 3.8 3.6 4.1 4.5 4.3 4.1 4.0 3.8 3.7 3.5 3.4 3.6 3.7 3.3 3.2 3.1 2.7 2.8 2.6
6.5 6.5 6.5 6.5 6.5 6.5 6.5 6.5 6.5 6.5 6.4 6.5 6.1 5.4 5.3 4.8 4.4 4.4 4.5 3.9 3.5 3.4 3.6 3.6 3.9 4.8 4.8 4.2 4.3 4.6 4.8 5.0 4.6 4.8 5.0 4.9 5.0 5.4 4.8 4.2 3.7 3.3 3.3 3.3 3.7 3.3 3.5 3.1 4.0
6.5 6.5 6.5 6.5 6.5 6.5 6.5 6.5 6.5 6.5 6.5 6.5 5.9 4.5 4.0 4.7 4.5 4.3 4.0 3.9 3.8 3.9 3.7 3.7 4.3 5.3 4.7 5.2 5.3 5.7 5.2 5.6 5.5 6.0 5.9 6.8 6.6 6.2 6.3 5.3 4.5 4.3 4.1 4.1 3.5 3.5 4.0 4.6 5.0
6.5 6.5 6.5 6.5 6.5 6.5 6.5 6.5 6.5 6.5 6.5 6.5 5.0 4.7 4.2 5.1 4.4 4.1 4.0 4.0 4.0 4.1 4.3 4.6 5.1 4.7 5.4 5.6 5.5 5.6 5.4 5.4 6.0 7.1 6.8 6.8 6.6 6.5 6.6 5.3 5.1 4.5 3.5 3.1 3.6 5.1 4.8 5.9 6.3
6.5 6.5 6.5 6.5 6.5 6.5 6.5 6.5 6.5 6.4 5.5 5.1 5.0 5.0 5.3 5.3 4.9 4.3 4.2 4.4 4.6 4.8 5.0 5.3 4.1 4.9 4.9 5.4 6.6 5.6 5.3 5.4 5.9 5.8 6.2 6.3 6.3 6.5 6.8 6.6 6.5 6.1 5.3 4.7 5.1 5.3 5.4 6.5 6.2
Wind_Speed
7 8 2 3 3 4 4 6 4 3 2 5 5 9 9 4 1 3 5 12 20 15 23 25 24 22 20 20 19 19 18 18 18 18 18 17 17 16 16 15 15 14 14 13 13 13 13 14 14
6 3 3 2 3 2 5 5 5 5 7 14 12 6 5 5 6 11 7 15 20 20 20 21 23 22 19 19 18 18 17 17 17 17 16 17 16 16 15 15 14 14 13 13 13 14 13 14 14
4 1 3 3 2 2 4 7 9 7 15 5 6 7 4 3 13 8 15 17 20 17 19 21 23 21 18 18 18 17 16 16 16 16 16 16 15 15 15 14 13 13 12 12 14 13 13 15 16
3 4 4 4 6 7 8 22 19 6 4 11 7 8 5 4 7 10 19 19 13 15 17 23 21 20 18 17 17 15 14 15 15 15 14 15 14 13 14 13 13 12 11 13 11 12 13 14 16
3 3 2 1 4 6 7 7 2 2 6 6 2 2 4 5 23 23 18 15 15 10 18 21 20 17 17 16 15 14 12 13 13 12 13 12 13 12 11 12 11 11 10 10 10 10 11 13 16
3 3 2 3 4 7 7 8 6 9 5 8 8 5 4 15 21 17 18 15 16 13 16 18 19 16 15 15 14 12 11 12 12 13 12 11 12 11 11 11 9 9 8 7 7 7 9 11 13
5 3 5 3 5 6 5 8 7 7 6 6 6 5 8 10 15 18 16 14 15 18 14 13 16 16 16 14 12 11 10 10 11 11 11 10 10 10 10 9 7 7 7 6 5 5 7 9 11
5 3 5 3 3 8 5 5 5 8 6 6 11 6 8 10 16 16 15 13 11 10 13 12 13 15 16 14 11 10 10 8 10 9 9 9 9 9 9 7 6 6 6 5 4 3 5 8 10
4 3 4 7 2 5 7 5 6 4 8 5 3 7 18 21 19 17 13 10 8 8 8 13 12 15 17 12 10 9 9 8 7 8 8 7 6 6 6 6 5 5 5 4 3 2 4 6 9
4 4 8 7 3 3 1 8 4 5 6 8 15 19 20 19 18 18 14 11 8 9 11 11 14 14 16 11 10 9 8 8 8 7 7 7 7 8 7 7 5 5 5 4 3 1 2 4 4
4 7 9 18 6 8 6 8 3 8 5 7 21 19 16 17 14 15 12 15 16 14 10 9 14 17 16 12 14 13 12 12 12 11 10 8 7 8 11 6 6 4 3 3 4 3 1 2 1
2 8 6 13 10 5 7 6 6 6 4 15 20 19 18 17 15 15 15 15 14 14 16 15 19 17 18 17 14 15 13 15 15 16 12 9 8 9 7 6 7 6 5 6 6 6 6 6 5
5 6 4 5 9 6 7 6 9 5 4 13 16 16 17 16 16 15 17 14 14 13 13 11 12 15 16 14 11 11 14 13 14 16 17 16 10 5 6 4 6 8 6 9 7 7 5 4 5
4 3 5 5 5 6 16 7 5 5 5 16 17 13 12 12 18 13 10 11 11 11 8 8 7 9 10 6 11 10 12 16 17 18 20 21 14 12 10 9 8 8 9 9 8 8 8 7 4
5 7 9 4 6 6 16 15 11 8 9 7 4 5 10 11 5 11 9 6 9 9 10 8 8 12 10 7 9 9 9 10 12 17 21 20 18 16 14 10 8 11 12 9 7 7 5 3 4
7 5 5 8 6 5 12 5 11 9 16 14 18 17 17 19 16 10 8 4 8 10 9 8 5 6 6 5 3 3 5 5 8 9 11 17 21 19 14 8 10 16 9 7 4 4 3 4 3
7 3 5 6 14 5 8 3 12 16 23 19 17 15 15 17 20 17 14 13 12 7 5 5 5 6 6 6 6 8 9 8 11 10 11 13 17 16 15 13 12 14 10 7 4 3 3 3 3
2 4 6 7 8 24 19 15 16 15 22 15 14 14 15 15 15 17 13 13 15 9 7 6 3 2 3 3 2 3 3 7 12 11 12 14 12 14 13 7 8 11 4 4 3 4 3 3 4
7 9 13 7 6 17 14 16 10 10 13 12 9 10 12 12 8 9 6 8 9 7 5 3 1 4 3 2 3 3 4 4 3 8 10 6 5 7 6 1 5 7 5 9 6 4 5 3 3
8 9 6 12 17 17 16 17 11 11 4 7 8 6 5 4 3 5 4 4 6 6 9 9 4 10 9 2 3 4 4 4 4 7 10 11 9 11 7 6 6 12 9 6 6 5 3 3 4
5 7 5 4 10 12 12 9 14 12 6 6 5 8 4 5 3 2 1 7 8 8 9 8 8 7 7 6 4 3 3 2 2 2 3 5 6 6 6 9 9 6 4 7 6 7 7 5 4
3 0 4 4 4 3 1 4 6 10 11 4 5 4 4 5 4 3 5 7 8 9 6 7 7 6 4 2 2 2 3 4 4 3 3 5 10 11 10 9 8 6 4 6 6 7 5 5 5
3 4 4 4 4 5 10 6 5 3 6 3 3 4 3 6 7 8 8 8 6 4 5 6 4 5 5 4 3 4 4 4 4 4 6 6 5 9 6 1 1 1 2 4 5 4 7 5 4
5 5 6 5 4 4 7 3 3 3 6 4 1 3 4 4 4 5 2 2 3 4 4 5 6 6 6 5 6 6 7 7 5 5 4 4 3 4 4 4 4 5 3 4 3 2 5 6 7
7 5 3 5 4 2 3 7 1 6 3 5 4 4 6 5 4 3 5 5 6 7 6 6 5 7 7 7 7 6 6 6 6 6 4 5 3 1 4 4 4 3 4 3 2 2 3 4 7
3 4 4 3 3 2 4 2 2 5 6 9 5 3 2 5 4 6 5 4 5 6 7 6 7 7 7 5 5 5 4 2 1 2 3 4 4 4 4 5 5 5 8 7 6 4 3 3 5
4 5 2 5 4 4 2 3 7 5 6 1 3 4 6 8 7 6 6 5 6 6 6 6 6 6 4 4 2 3 4 4 4 5 4 4 5 4 5 5 6 5 5 5 6 4 7 5 4
6 3 3 4 3 3 2 2 3 4 2 3 5 7 8 6 6 6 6 6 5 5 5 6 6 5 3 4 4 4 5 4 4 4 6 6 6 6 7 6 6 6 6 6 4 4 5 10 8
5 3 5 4 3 4 3 4 5 5 5 3 7 8 7 4 5 5 6 6 6 6 6 6 6 5 6 6 5 5 4 6 5 5 6 7 7 7 7 6 6 6 6 5 5 7 8 9 12
4 4 3 4 2 3 4 4 4 5 7 6 7 6 5 4 5 6 6 6 7 6 6 6 5 6 6 3 4 4 5 5 6 6 7 8 7 8 8 9 9 8 8 7 8 8 8 9 13
Wind_Direction
136 157 128 57 36 70 266 264 250 274 117 335 73 119 123 59 106 174 152 148 142 138 146 142 145 141 141 135 129 126 120 116 112 108 104 98 96 93 91 88 84 80 79 76 72 66 56 41 33
146 142 43 72 90 52 277 256 214 224 119 122 100 115 52 92 77 112 101 138 138 134 136 140 145 142 144 139 132 126 123 118 114 111 108 102 99 95 91 87 83 79 77 76 77 61 51 40 31
212 115 79 106 110 188 252 273 318 259 158 136 101 56 78 72 117 138 133 135 134 128 133 144 144 140 143 138 131 125 122 120 117 113 111 105 102 95 92 90 85 81 76 80 68 61 46 33 25
149 21 14 96 248 263 239 280 268 252 86 40 85 72 76 24 141 130 134 132 124 131 145 142 138 140 141 140 128 125 123 121 121 118 112 113 102 98 94 91 85 80 84 81 69 57 40 29 23
37 63 37 333 271 268 271 292 26 45 80 32 61 59 62 40 115 128 132 131 130 131 129 132 139 142 143 138 130 124 124 123 123 118 116 112 110 101 100 97 89 82 87 78 66 50 35 26 24
25 94 24 276 342 295 316 309 70 59 96 129 83 77 38 133 125 135 132 130 125 120 128 135 138 141 141 134 130 127 130 127 123 124 117 118 116 113 105 106 94 89 91 80 66 51 27 22 23
134 99 220 254 284 296 307 312 45 72 61 38 105 91 128 144 123 127 121 120 122 126 124 131 136 142 131 127 131 133 137 142 129 132 128 128 123 125 125 112 98 95 97 87 78 57 21 11 18
117 104 295 270 276 281 298 25 66 52 30 121 138 151 169 150 122 120 126 122 125 120 124 121 125 124 125 131 140 142 141 137 145 139 137 133 135 135 139 130 113 113 108 99 93 63 32 13 10
115 50 281 256 165 263 308 110 36 60 70 32 339 138 126 129 127 120 115 110 110 120 114 119 123 127 129 136 152 152 159 156 160 156 161 155 155 157 175 163 147 133 120 128 129 83 40 16 9
117 137 246 221 161 114 19 89 95 86 65 48 84 92 119 130 133 131 134 134 135 145 146 146 142 141 146 150 152 160 176 183 192 195 200 191 193 206 207 192 181 165 151 159 183 157 43 17 25
215 226 265 278 192 162 109 66 125 130 65 151 142 133 135 132 132 133 144 160 168 164 159 161 157 156 156 166 169 180 191 200 213 214 215 217 224 210 209 204 197 207 178 211 240 271 258 254 178
265 252 225 270 183 140 156 125 75 100 147 153 148 145 142 141 150 153 164 174 166 169 173 174 161 161 172 176 185 193 197 208 217 225 219 224 189 193 204 218 215 225 214 232 240 248 261 238 250
195 264 270 86 135 114 113 86 114 96 105 141 135 150 157 158 159 174 177 172 163 167 167 175 171 165 174 177 184 198 205 217 224 231 232 220 194 185 192 207 212 224 227 226 232 214 235 205 226
266 262 255 146 202 122 94 29 69 49 95 129 147 160 170 170 164 174 167 157 157 156 174 136 152 157 167 155 189 209 218 225 227 227 230 214 204 182 180 176 179 196 209 222 226 208 182 178 191
284 349 333 302 158 138 90 29 12 339 71 82 122 73 39 17 48 159 131 135 159 174 152 153 162 152 135 170 157 175 195 202 214 208 217 221 213 203 199 194 195 209 216 215 204 196 202 206 227
340 41 353 324 165 50 83 25 5 359 61 52 61 57 53 45 38 25 66 95 125 141 171 142 153 144 145 158 160 211 228 220 222 228 220 224 224 225 212 201 211 216 203 207 192 203 231 231 216
8 1 2 4 358 91 82 94 14 48 67 65 61 56 57 52 49 45 48 65 41 41 83 107 146 162 179 192 195 211 233 241 251 251 241 237 227 226 215 217 211 208 199 194 184 193 181 231 229
309 45 11 30 18 70 72 68 51 48 68 69 68 65 63 61 61 63 18 54 69 39 30 66 36 310 275 278 295 281 270 266 264 257 257 264 245 232 238 231 219 206 184 206 192 195 182 196 233
74 83 69 87 95 62 60 52 27 55 67 71 71 77 77 76 68 51 54 26 29 35 5 24 0 289 279 257 256 250 241 252 252 245 247 234 277 290 165 228 239 227 224 213 192 179 197 232 203
59 84 76 103 95 92 75 44 17 29 20 117 120 97 99 109 118 118 100 30 292 243 243 272 281 276 281 259 237 225 217 231 220 226 237 249 251 247 236 237 258 241 224 203 192 176 173 213 180
8 100 103 109 73 120 94 43 12 347 347 70 95 118 104 139 146 188 191 207 234 240 243 245 248 255 262 258 257 260 271 299 311 279 283 272 236 222 218 227 220 221 207 199 192 183 171 193 217
27 310 128 153 123 146 332 118 13 332 321 46 63 70 148 175 202 222 222 221 235 249 269 257 263 265 254 293 272 256 226 239 232 231 243 265 273 272 254 233 224 219 207 214 209 198 176 152 195
258 306 264 212 158 93 11 87 288 280 348 25 68 79 144 209 224 234 236 245 258 236 212 218 258 278 265 280 237 247 256 243 252 253 254 252 266 271 316 349 154 215 230 219 223 235 186 183 167
309 15 47 52 100 60 344 108 286 299 173 226 222 190 194 235 320 8 359 334 277 275 282 276 269 278 289 282 277 249 245 259 261 264 263 260 225 122 93 75 91 94 86 66 43 306 243 228 190
23 56 18 20 37 109 201 61 200 310 344 180 207 357 351 341 2 321 314 303 299 313 297 290 298 296 301 309 313 317 319 339 327 321 323 312 301 235 178 167 169 171 171 164 132 20 345 266 223
4 92 131 157 148 156 32 113 258 293 320 70 89 189 290 328 302 292 318 310 306 306 321 323 318 306 313 339 5 39 44 12 310 259 256 248 244 248 249 259 240 211 202 192 188 180 215 279 252
332 35 96 99 57 84 58 351 319 347 75 35 324 347 293 272 311 313 324 331 322 322 308 297 300 299 332 27 16 301 319 322 317 305 285 265 265 254 247 249 251 243 238 239 218 198 213 216 252
71 354 61 23 100 97 133 50 227 338 320 326 332 299 287 310 331 335 329 323 309 298 290 312 306 304 27 316 303 330 317 324 305 299 283 270 265 254 253 250 245 242 236 234 215 221 251 231 217
5 37 60 102 119 152 134 275 219 257 252 273 275 291 325 336 329 316 315 315 309 311 328 309 336 24 343 330 346 342 324 305 291 278 277 278 277 274 264 249 250 238 234 218 207 231 237 251 212
74 111 99 112 157 65 119 276 245 249 237 242 315 336 6 353 319 316 325 321 323 328 319 337 41 24 340 336 342 324 309 296 290 296 301 298 290 279 278 273 265 250 227 210 212 213 224 229 220